TimeEST,TemperatureF,Dew PointF,Humidity,Sea Level PressureIn,VisibilityMPH,Wind Direction,Wind SpeedMPH,Gust SpeedMPH,PrecipitationIn,Events,Conditions,WindDirDegrees,DateUTC
12:54 AM,30.0,25.0,82,30.00,10.0,Calm,Calm,-,N/A,,Clear,0,2013-02-16 05:54:00
1:54 AM,27.0,24.1,89,30.00,10.0,WNW,3.5,-,N/A,,Partly Cloudy,300,2013-02-16 06:54:00
2:54 AM,28.9,24.1,82,30.00,10.0,Calm,Calm,-,N/A,,Overcast,0,2013-02-16 07:54:00
3:54 AM,30.9,19.9,64,29.99,10.0,NNW,8.1,-,N/A,,Overcast,330,2013-02-16 08:54:00
4:54 AM,28.9,18.0,64,30.00,10.0,NW,3.5,-,N/A,,Overcast,310,2013-02-16 09:54:00
5:54 AM,28.0,18.0,66,30.01,10.0,NW,6.9,-,N/A,,Overcast,310,2013-02-16 10:54:00
6:54 AM,28.0,15.1,58,30.02,10.0,NNW,3.5,-,N/A,,Partly Cloudy,340,2013-02-16 11:54:00
7:54 AM,28.0,16.0,61,30.02,10.0,NNW,4.6,-,N/A,,Mostly Cloudy,330,2013-02-16 12:54:00
8:54 AM,28.9,14.0,54,30.02,10.0,North,6.9,-,N/A,,Overcast,10,2013-02-16 13:54:00
9:54 AM,30.0,14.0,51,30.01,10.0,NW,6.9,-,N/A,,Overcast,320,2013-02-16 14:54:00
10:54 AM,30.0,12.9,49,30.00,10.0,NNW,6.9,-,N/A,,Overcast,340,2013-02-16 15:54:00
11:54 AM,33.1,14.0,46,29.98,10.0,Variable,4.6,-,N/A,,Overcast,0,2013-02-16 16:54:00
12:54 PM,33.1,12.0,42,29.94,10.0,West,6.9,-,N/A,,Scattered Clouds,270,2013-02-16 17:54:00
1:54 PM,34.0,10.9,38,29.91,10.0,West,8.1,-,N/A,,Partly Cloudy,280,2013-02-16 18:54:00
2:54 PM,34.0,10.0,37,29.91,10.0,North,6.9,-,N/A,,Scattered Clouds,10,2013-02-16 19:54:00
3:54 PM,33.1,9.0,37,29.91,10.0,North,8.1,-,N/A,,Scattered Clouds,10,2013-02-16 20:54:00
4:54 PM,33.1,8.1,35,29.90,10.0,NNE,6.9,-,N/A,,Scattered Clouds,20,2013-02-16 21:54:00
5:54 PM,30.9,9.0,40,29.91,10.0,NNE,5.8,-,N/A,,Mostly Cloudy,30,2013-02-16 22:54:00
6:54 PM,30.0,8.1,40,29.93,10.0,NNE,3.5,-,N/A,,Overcast,20,2013-02-16 23:54:00
7:54 PM,28.9,7.0,40,29.91,10.0,NNW,4.6,-,N/A,,Overcast,340,2013-02-17 00:54:00
8:54 PM,28.0,10.9,49,29.92,10.0,NNE,5.8,-,N/A,,Overcast,20,2013-02-17 01:54:00
9:54 PM,26.1,10.9,53,29.91,10.0,NNE,3.5,-,N/A,,Partly Cloudy,20,2013-02-17 02:54:00
10:54 PM,26.1,9.0,49,29.90,10.0,North,6.9,-,N/A,,Clear,360,2013-02-17 03:54:00
11:54 PM,25.0,9.0,51,29.88,10.0,Variable,3.5,-,N/A,,Clear,0,2013-02-17 04:54:00